TimeEST,TemperatureF,Dew PointF,Humidity,Sea Level PressureIn,VisibilityMPH,Wind Direction,Wind SpeedMPH,Gust SpeedMPH,PrecipitationIn,Events,Conditions,WindDirDegrees,DateUTC
12:53 AM,57.9,55.9,93,30.18,-9999.0,Calm,Calm,-,N/A,,Unknown,0,2013-01-12 05:53:00
1:53 AM,57.0,55.0,93,30.17,-9999.0,Calm,Calm,-,N/A,,Unknown,0,2013-01-12 06:53:00
2:53 AM,55.0,53.1,93,30.17,-9999.0,Calm,Calm,-,N/A,,Unknown,0,2013-01-12 07:53:00
3:53 AM,55.0,53.1,93,30.16,-9999.0,Calm,Calm,-,N/A,,Unknown,0,2013-01-12 08:53:00
4:53 AM,55.0,53.1,93,30.16,-9999.0,Calm,Calm,-,N/A,,Unknown,0,2013-01-12 09:53:00
5:53 AM,55.9,53.1,90,30.15,-9999.0,Calm,Calm,-,N/A,,Unknown,0,2013-01-12 10:53:00
6:53 AM,55.9,53.1,90,30.16,-9999.0,ESE,4.6,-,N/A,,Unknown,110,2013-01-12 11:53:00
7:53 AM,54.0,52.0,93,30.17,-9999.0,Calm,Calm,-,N/A,,Unknown,0,2013-01-12 12:53:00
8:53 AM,64.0,61.0,90,30.17,-9999.0,SE,6.9,-,0.01,,Unknown,130,2013-01-12 13:53:00
9:53 AM,72.0,64.0,76,30.18,-9999.0,SSE,9.2,-,N/A,,Unknown,150,2013-01-12 14:53:00
10:53 AM,75.0,63.0,66,30.17,-9999.0,South,10.4,-,N/A,,Unknown,170,2013-01-12 15:53:00
11:53 AM,77.0,62.1,60,30.15,-9999.0,SSW,13.8,-,N/A,,Unknown,200,2013-01-12 16:53:00
12:53 PM,80.1,61.0,52,30.14,-9999.0,South,10.4,16.1,N/A,,Unknown,190,2013-01-12 17:53:00
1:53 PM,79.0,60.1,52,30.13,-9999.0,South,11.5,-,N/A,,Unknown,190,2013-01-12 18:53:00
2:53 PM,78.1,60.1,54,30.12,-9999.0,SSW,10.4,-,N/A,,Unknown,200,2013-01-12 19:53:00
3:53 PM,77.0,60.1,56,30.12,-9999.0,SSW,9.2,18.4,N/A,,Unknown,200,2013-01-12 20:53:00
4:53 PM,75.0,61.0,62,30.13,-9999.0,SW,5.8,-,N/A,,Unknown,220,2013-01-12 21:53:00
5:53 PM,72.0,62.1,71,30.11,-9999.0,South,4.6,-,N/A,,Unknown,190,2013-01-12 22:53:00
6:53 PM,64.0,59.0,84,30.09,-9999.0,Calm,Calm,-,N/A,,Unknown,0,2013-01-12 23:53:00
7:53 PM,63.0,60.1,90,30.09,-9999.0,Calm,Calm,-,N/A,,Unknown,0,2013-01-13 00:53:00
8:53 PM,61.0,57.9,90,30.09,-9999.0,ESE,3.5,-,N/A,,Unknown,110,2013-01-13 01:53:00
9:53 PM,62.1,59.0,90,30.09,-9999.0,Calm,Calm,-,N/A,,Unknown,0,2013-01-13 02:53:00
10:53 PM,62.1,59.0,90,30.10,-9999.0,Calm,Calm,-,N/A,,Unknown,0,2013-01-13 03:53:00
11:53 PM,64.9,61.0,87,30.10,-9999.0,Variable,3.5,-,N/A,,Unknown,0,2013-01-13 04:53:00